Chico, CA

2:58 PM PDT on October 20, 2019 (GMT -0700)
Chico Municipal

Weather History for KCIC - September, 2019

Change the Weather History Date:

Monday, September 16, 2019

  Actual Average (KOVE) Record (KOVE)
Temperature  
Mean Temperature 68 °F -  
Max Temperature 75 °F 86 °F 106 °F (1971)
Min Temperature 62 °F 54 °F 40 °F (1987)
Cooling Degree Days 4    
Growing Degree Days 18 (Base 50)    
Moisture  
Dew Point 51 °F    
Average Humidity 60    
Maximum Humidity 100    
Minimum Humidity 25    
Precipitation  
Precipitation 0.09 in - - ()
Sea Level Pressure  
Sea Level Pressure 29.86 in    
Wind  
Wind Speed 13 mph (SE)    
Max Wind Speed 21 mph    
Max Gust Speed 28 mph    
Visibility 9 miles    
Events Rain    
Averages and records for this station are not official NWS values.
T = Trace of Precipitation, MM = Missing Value Source: NWS Daily Summary

Daily Weather History Graph

Daily Weather History Graph

Search for Another Location

Airport or City:

Astronomy

Sep. 16, 2019 Rise Set
Actual Time 6:49 AM PDT 7:14 PM PDT
Civil Twilight 6:22 AM PDT 7:41 PM PDT
Nautical Twilight 5:50 AM PDT 8:13 PM PDT
Astronomical Twilight 5:17 AM PDT 8:45 PM PDT
Moon 8:52 PM PDT (9/16) 9:01 AM PDT (9/16)
Length of Visible Light 13h 19m
Length of Day
12h 25m
Waning Gibbous, 94% of the Moon is Illuminated
Sep 16
Waning Gibbous
Sep 21
Last Quarter
Sep 28
New
Oct 5
First Quarter
Oct 13
Full

Hourly Weather History & Observations

Time (PDT) Temp. Dew Point Humidity Pressure Visibility Wind Dir Wind Speed Gust Speed Precip Events Conditions
12:15 AM 69.8 °F 46.4 °F 43% 29.75 in 10.0 mi SSE 20.7 mph - N/A   Clear
12:35 AM 69.8 °F 46.4 °F 43% 29.76 in 10.0 mi Calm Calm - N/A   Clear
12:55 AM 69.8 °F 48.2 °F 46% 29.76 in 10.0 mi SSE 17.3 mph - N/A   Clear
1:15 AM 68.0 °F 50.0 °F 52% 29.77 in 10.0 mi SSE 18.4 mph 26.5 mph N/A   Clear
1:35 AM 68.0 °F 51.8 °F 56% 29.76 in 10.0 mi SE 19.6 mph 27.6 mph N/A   Clear
1:55 AM 68.0 °F 51.8 °F 56% 29.77 in 10.0 mi SSE 18.4 mph 25.3 mph N/A   Clear
2:15 AM 68.0 °F 53.6 °F 60% 29.78 in 10.0 mi SSE 18.4 mph 23.0 mph N/A   Clear
2:35 AM 68.0 °F 53.6 °F 60% 29.79 in 10.0 mi SE 19.6 mph 25.3 mph N/A   Partly Cloudy
2:55 AM 68.0 °F 55.4 °F 64% 29.79 in 10.0 mi SE 20.7 mph 25.3 mph N/A   Mostly Cloudy
3:15 AM 68.0 °F 55.4 °F 64% 29.79 in 10.0 mi SE 20.7 mph 26.5 mph N/A   Overcast
3:35 AM 66.2 °F 55.4 °F 68% 29.79 in 10.0 mi SE 17.3 mph 21.9 mph N/A   Mostly Cloudy
3:55 AM 68.0 °F 55.4 °F 64% 29.79 in 10.0 mi SE 19.6 mph 26.5 mph N/A   Mostly Cloudy
4:15 AM 66.2 °F 55.4 °F 68% 29.79 in 10.0 mi SE 16.1 mph 21.9 mph N/A   Overcast
4:35 AM 66.2 °F 57.2 °F 73% 29.80 in 10.0 mi SE 15.0 mph - N/A   Mostly Cloudy
4:55 AM 64.4 °F 59.0 °F 83% 29.80 in 6.0 mi SE 16.1 mph - 0.01 in   Overcast
5:15 AM 64.4 °F 59.0 °F 83% 29.80 in 9.0 mi SE 13.8 mph - N/A   Overcast
5:35 AM 64.4 °F 60.8 °F 88% 29.80 in 3.0 mi SE 15.0 mph - 0.06 in   Overcast
5:55 AM 64.4 °F 62.6 °F 94% 29.81 in 7.0 mi SE 13.8 mph - 0.07 in   Overcast
6:15 AM 64.4 °F 62.6 °F 94% 29.79 in 6.0 mi SE 17.3 mph 21.9 mph 0.01 in   Mostly Cloudy
6:47 AM 62.6 °F 62.6 °F 100% 29.83 in 5.0 mi SSE 19.6 mph - N/A Rain Light Rain
7:18 AM 62.6 °F 62.6 °F 100% 29.79 in 7.0 mi ESE 13.8 mph 18.4 mph N/A Rain Light Rain
7:47 AM 62.6 °F 62.6 °F 100% 29.84 in 7.0 mi SSE 10.4 mph - N/A Rain Light Rain
8:47 AM 62.6 °F 62.6 °F 100% 29.84 in 10.0 mi SE 5.8 mph - N/A Rain Light Rain
10:47 AM 64.4 °F 46.4 °F 52% 29.87 in 40.0 mi NE 8.1 mph - N/A   Mostly Cloudy
11:37 AM 69.8 °F 44.6 °F 40% 29.88 in 40.0 mi NNW 10.4 mph - N/A   Mostly Cloudy
11:47 AM 69.8 °F 44.6 °F 40% 29.88 in 40.0 mi NNW 11.5 mph 18.4 mph N/A   Mostly Cloudy
12:55 PM 73.4 °F 42.8 °F 33% 29.86 in 40.0 mi NW 6.9 mph - N/A   Mostly Cloudy
2:54 PM 73.4 °F 37.4 °F 27% 29.91 in 40.0 mi SSW 8.1 mph - N/A   Mostly Cloudy
3:55 PM 75.2 °F 37.4 °F 25% 29.90 in 40.0 mi WSW 11.5 mph - N/A   Mostly Cloudy
4:58 PM 75.2 °F 41.0 °F 29% 29.91 in 40.0 mi SSW 9.2 mph - N/A   Mostly Cloudy
5:54 PM 73.4 °F 42.8 °F 33% 29.92 in 40.0 mi SSW 10.4 mph - N/A   Mostly Cloudy
8:15 PM 66.2 °F 46.4 °F 49% 29.96 in 10.0 mi Calm Calm - N/A   Partly Cloudy
8:35 PM 66.2 °F 46.4 °F 49% 29.96 in 10.0 mi Calm Calm - N/A   Scattered Clouds
8:55 PM 64.4 °F 46.4 °F 52% 29.97 in 10.0 mi NE 5.8 mph - N/A   Mostly Cloudy
9:15 PM 64.4 °F 46.4 °F 52% 29.98 in 10.0 mi Calm Calm - N/A   Overcast
9:35 PM 64.4 °F 46.4 °F 52% 29.99 in 10.0 mi Calm Calm - N/A   Overcast
9:55 PM 66.2 °F 46.4 °F 49% 29.99 in 10.0 mi Calm Calm - N/A   Overcast
10:15 PM 66.2 °F 46.4 °F 49% 29.99 in 10.0 mi Calm Calm - N/A   Overcast
10:35 PM 64.4 °F 48.2 °F 56% 29.99 in 10.0 mi Calm Calm - N/A   Overcast
10:55 PM 64.4 °F 48.2 °F 56% 30.00 in 10.0 mi Calm Calm - N/A   Overcast
11:15 PM 64.4 °F 48.2 °F 56% 30.00 in 10.0 mi Calm Calm - N/A   Overcast
11:35 PM 64.4 °F 48.2 °F 56% 30.00 in 10.0 mi Calm Calm - N/A   Overcast
11:55 PM 64.4 °F 48.2 °F 56% 30.01 in 10.0 mi NE 4.6 mph - N/A   Mostly Cloudy